User: anonymous   Login
Location: Unspecified
(0.0000°N, 0.0000°E)
Time: 01:14:52
(UTC+00:00)
Language:

GONETS M 08 (M18) - Orbit

View from above orbital plane
View from above orbital plane
View from above satellite
View from above satellite

Ground track
Ground track

The orbit data is extracted from the following two-line orbital elements,

1 40061U 14036A   23088.45241182  .00000064  00000-0  39240-3 0  9994
2 40061  82.5122 317.8769 0028855 193.3872 166.6448 12.42925167396401
Epoch (UTC): 29 March 2023 10:51:28
Eccentricity: 0.0028855
inclination: 82.5122°
perigee height: 1471 km
apogee height: 1517 km
right ascension of ascending node: 317.8769°
argument of perigee: 193.3872°
revolutions per day: 12.42925167
mean anomaly at epoch: 166.6448°
orbit number at epoch: 39640

The dashed part of the orbit path shows where the satellite is in the earth's shadow,  

DLR